This demonstration page uses our WeatherBlox Daily Observations layout. Learn more.

Left ArrowRight Arrow

Hourly Observations for November 7, 2022

Temp ( °F °C ) Dew Point ( °F °C ) Humidity (%) Winds ( mph kmh ) Pressure ( in mb ) Visibility ( mi km ) Precip ( " mm )
12:15 am 00:15 Clear 66 19 66 19 100 100 S 3 6 30.18 1022 10 16 0.00 0.00
12:35 am 00:35 Clear 66 19 66 19 100 100 S 3 6 30.18 1022 10 16 0.00 0.00
12:55 am 00:55 Clear 66 19 66 19 100 100 S 3 6 30.18 1022 10 16 0.00 0.00
1:15 am 01:15 Partly Cloudy 64 18 64 18 100 100 SSW 5 7 30.18 1022 10 16 0.00 0.00
1:35 am 01:35 Mostly Cloudy 64 18 64 18 100 100 Calm 30.18 1022 10 16 0.00 0.00
1:55 am 01:55 Cloudy 64 18 64 18 100 100 S 6 9 30.17 1022 10 16 0.00 0.00
2:15 am 02:15 Partly Cloudy 64 18 64 18 100 100 SSW 6 9 30.18 1022 10 16 0.00 0.00
2:35 am 02:35 Mostly Cloudy 64 18 64 18 100 100 SW 3 6 30.18 1022 10 16 0.00 0.00
2:55 am 02:55 Mostly Cloudy 64 18 64 18 100 100 Calm 30.18 1022 7 11 0.00 0.00
3:15 am 03:15 Cloudy 64 18 64 18 100 100 Calm 30.18 1022 7 11 0.00 0.00
3:35 am 03:35 Cloudy 64 18 64 18 100 100 WNW 5 7 30.20 1023 10 16 0.00 0.00
3:55 am 03:55 Cloudy 66 19 66 19 100 100 Calm 30.19 1022 10 16 0.00 0.00
4:15 am 04:15 Cloudy 66 19 66 19 100 100 Calm 30.19 1022 10 16 0.00 0.00
4:35 am 04:35 Cloudy 66 19 66 19 100 100 Calm 30.20 1023 10 16 0.00 0.00
4:55 am 04:55 Cloudy 64 18 64 18 100 100 Calm 30.20 1023 10 16 0.00 0.00
5:15 am 05:15 Cloudy 64 18 64 18 100 100 Calm 30.22 1023 7 11 0.00 0.00
5:35 am 05:35 Cloudy 64 18 64 18 100 100 Calm 30.22 1024 7 11 0.00 0.00
5:55 am 05:55 Mostly Cloudy 64 18 64 18 100 100 WNW 7 11 30.23 1024 3 4 0.00 0.00
6:15 am 06:15 Mostly Cloudy 64 18 64 18 100 100 NW 5 7 30.23 1024 10 16 0.00 0.00
6:35 am 06:35 Cloudy 64 18 63 17 94 94 WNW 6 9 30.25 1024 10 16 0.00 0.00
6:55 am 06:55 Cloudy 64 18 61 16 88 88 NW 8 13 30.25 1024 10 16 0.00 0.00
7:15 am 07:15 Mostly Cloudy 66 19 59 15 78 78 NW 7 11 30.25 1024 10 16 0.00 0.00
7:35 am 07:35 Partly Cloudy 66 19 59 15 78 78 NW 13 20 30.26 1025 10 16 0.00 0.00
7:55 am 07:55 Partly Cloudy 66 19 59 15 78 78 NW 9 15 30.27 1025 10 16 0.00 0.00
8:15 am 08:15 Partly Cloudy 70 21 59 15 69 69 NW 7 11 30.28 1025 10 16 0.00 0.00
8:35 am 08:35 Partly Cloudy 70 21 55 13 60 60 NW 5 7 30.28 1025 10 16 0.00 0.00
8:55 am 08:55 Sunny 70 21 55 13 60 60 NNW 5 7 30.28 1025 10 16 0.00 0.00
9:15 am 09:15 Sunny 70 21 54 12 56 56 NNW 8 13 30.29 1026 10 16 0.00 0.00
9:35 am 09:35 Sunny 72 22 50 10 46 46 N 6 9 30.29 1026 10 16 0.00 0.00
9:55 am 09:55 Sunny 72 22 50 10 46 46 NNW 10 17 30.29 1026 10 16 0.00 0.00
10:15 am 10:15 Sunny 72 22 48 9 43 43 NNW 9 15 30.29 1026 10 16 0.00 0.00
10:35 am 10:35 Sunny 73 23 50 10 44 44 WNW 12 19 30.29 1026 10 16 0.00 0.00
10:55 am 10:55 Sunny 73 23 48 9 41 41 NNW 9 15 30.29 1026 10 16 0.00 0.00
11:15 am 11:15 Sunny 73 23 46 8 38 38 NW 10 17 30.29 1026 10 16 0.00 0.00
11:35 am 11:35 Sunny 73 23 46 8 38 38 NW 8 13 30.29 1026 10 16 0.00 0.00
11:55 am 11:55 Sunny 73 23 45 7 36 36 N 12 19 30.28 1025 10 16 0.00 0.00
12:15 pm 12:15 Sunny 75 24 46 8 36 36 NNW 12 19 30.27 1025 10 16 0.00 0.00
12:35 pm 12:35 Sunny 75 24 46 8 36 36 NNW 9 15 30.27 1025 10 16 0.00 0.00
12:55 pm 12:55 Sunny 77 25 46 8 34 34 NNW 9 15 30.27 1025 10 16 0.00 0.00
1:15 pm 13:15 Sunny 77 25 45 7 32 32 NNW 10 17 30.25 1024 10 16 0.00 0.00
1:35 pm 13:35 Sunny 77 25 45 7 32 32 NNW 12 19 30.25 1024 10 16 0.00 0.00
1:55 pm 13:55 Sunny 77 25 45 7 32 32 NW 14 22 30.24 1024 10 16 0.00 0.00
2:15 pm 14:15 Sunny 77 25 45 7 32 32 NNW 12 19 30.24 1024 10 16 0.00 0.00
2:35 pm 14:35 Sunny 77 25 45 7 32 32 NNW 15 24 30.24 1024 10 16 0.00 0.00
2:55 pm 14:55 Sunny 77 25 45 7 32 32 NW 9 15 30.25 1024 10 16 0.00 0.00
3:15 pm 15:15 Sunny 77 25 45 7 32 32 NNW 13 20 30.24 1024 10 16 0.00 0.00
3:35 pm 15:35 Sunny 77 25 45 7 32 32 N 9 15 30.24 1024 10 16 0.00 0.00
3:55 pm 15:55 Sunny 77 25 45 7 32 32 NNW 7 11 30.25 1024 10 16 0.00 0.00
4:15 pm 16:15 Sunny 75 24 45 7 34 34 NNW 5 7 30.25 1025 10 16 0.00 0.00
4:35 pm 16:35 Sunny 73 23 45 7 36 36 NNW 9 15 30.26 1025 10 16 0.00 0.00
4:55 pm 16:55 Sunny 73 23 45 7 36 36 NNW 12 19 30.27 1025 10 16 0.00 0.00
5:15 pm 17:15 Clear 72 22 45 7 38 38 N 7 11 30.28 1025 10 16 0.00 0.00
5:35 pm 17:35 Clear 72 22 45 7 38 38 N 8 13 30.29 1026 10 16 0.00 0.00
5:55 pm 17:55 Clear 70 21 45 7 40 40 N 5 7 30.29 1026 10 16 0.00 0.00
6:15 pm 18:15 Clear 68 20 43 6 40 40 NNW 8 13 30.30 1026 10 16 0.00 0.00
6:35 pm 18:35 Clear 66 19 43 6 43 43 NNW 8 13 30.30 1026 10 16 0.00 0.00
6:55 pm 18:55 Clear 64 18 43 6 45 45 NNW 8 13 30.31 1027 10 16 0.00 0.00
7:15 pm 19:15 Clear 64 18 41 5 42 42 NNW 6 9 30.33 1027 10 16 0.00 0.00
7:35 pm 19:35 Clear 63 17 41 5 45 45 NW 7 11 30.33 1027 10 16 0.00 0.00
7:55 pm 19:55 Clear 61 16 41 5 48 48 NW 7 11 30.33 1027 10 16 0.00 0.00
8:15 pm 20:15 Clear 63 17 36 2 36 36 NW 12 19 30.33 1027 10 16 0.00 0.00
8:35 pm 20:35 Clear 64 18 36 2 34 34 NNW 10 17 30.33 1027 10 16 0.00 0.00
8:55 pm 20:55 Clear 63 17 36 2 36 36 N 7 11 30.35 1028 10 16 0.00 0.00
9:15 pm 21:15 Clear 63 17 32 0 32 32 NNW 12 19 30.35 1028 10 16 0.00 0.00
9:35 pm 21:35 Clear 61 16 32 0 34 34 N 13 20 30.36 1028 10 16 0.00 0.00
9:55 pm 21:55 Clear 63 17 32 0 32 32 N 5 7 30.36 1028 10 16 0.00 0.00
10:15 pm 22:15 Clear 63 17 30 -1 29 29 N 6 9 30.39 1029 10 16 0.00 0.00
10:35 pm 22:35 Clear 61 16 32 0 34 34 Calm 30.39 1029 10 16 0.00 0.00
10:55 pm 22:55 Clear 61 16 32 0 34 34 N 5 7 30.40 1029 10 16 0.00 0.00
11:15 pm 23:15 Clear 59 15 32 0 36 36 N 5 7 30.40 1029 10 16 0.00 0.00
11:35 pm 23:35 Clear 59 15 32 0 36 36 NNE 6 9 30.41 1030 10 16 0.00 0.00
11:55 pm 23:55 Clear 59 15 30 -1 33 33 N 9 15 30.42 1030 10 16 0.00 0.00

Powered by AerisWeather